sat.trackr.live / text

‹ back to catalog

STARLINK-4065

NORAD 52841 · 2022-062M

PAYLOAD ACTIVE UNKNOWN

§ Identity

Operator
Country
US
Launch date
2022-06-17
Launch site
AFETR
Launch vehicle
Mass (kg)
RCS (m²)

Purposes: comms

External: N2YO · Heavens-Above · Gunter

§ Orbital elements

Epoch: 2026-09-20T04:38:08.132352Z

Period
93.85 min
Inclination
53.1596°
Eccentricity
0.0001259
Mean motion
15.34386291 rev/d
Perigee alt
461.9 km
Apogee alt
463.6 km
Semi-major
6,840.9 km
B*
1.4757e-4
RAAN
228.9135°
Arg perigee
85.7172°
Mean anomaly
274.3974°
Rev number
23,531

§ Raw data

STARLINK-40651 52841U 22062M   26263.19314968  .00004611  00000+0  14757-3 0  99902 52841  53.1596 228.9135 0001259  85.7172 274.3974 15.34386291235310

JSON: /api/v1/satellites/52841 · /tle

For live sub-satellite position, see the globe view (requires WebGL).

§ Visibility from observer

Set your observer location to see the next 7 days of passes ≥ 10°. The values pass through the URL so the page stays shareable.

No JS? Fill the form by hand. The geolocation button needs JavaScript.